sat.trackr.live / text

‹ back to catalog

DIRECTV 15

NORAD 40663 · 2015-026A

PAYLOAD ACTIVE UNKNOWN

§ Identity

Operator
Country
US
Launch date
2015-05-27
Launch site
FRGUI
Launch vehicle
Mass (kg)
RCS (m²)
42.71

Purposes: comms

External: N2YO · Heavens-Above · Gunter

§ Orbital elements

Epoch: 2026-09-14T21:52:04.860768Z

Period
1,436.12 min
Inclination
0.0150°
Eccentricity
0.0000783
Mean motion
1.00270136 rev/d
Perigee alt
35,783.8 km
Apogee alt
35,790.4 km
Semi-major
42,165.2 km
B*
0.0000e+0
RAAN
114.0572°
Arg perigee
28.9161°
Mean anomaly
76.0651°
Rev number
4,136

§ Raw data

DIRECTV 151 40663U 15026A   26257.91116737 -.00000109  00000+0  00000+0 0  99992 40663   0.0150 114.0572 0000783  28.9161  76.0651  1.00270136 41361

JSON: /api/v1/satellites/40663 · /tle

For live sub-satellite position, see the globe view (requires WebGL).

§ Visibility from observer

Set your observer location to see the next 7 days of passes ≥ 10°. The values pass through the URL so the page stays shareable.

No JS? Fill the form by hand. The geolocation button needs JavaScript.